Location: Colleton State Park
(33.0623°N, 80.6164°W)
Time: 05:51:27
(UTC-04:00)

Hubble Space Telescope - Pass Details

Date: 20 May 2019
Orbit: 536 x 540 km, 28.5° (Epoch: 23 June)

Event Time Altitude Azimuth Distance (km) Brightness Sun altitude
Rises 21:19:31 0° 261° (W) 2,671 5.1 -12.0°
Reaches altitude 10° 21:22:36 10° 237° (WSW) 1,777 3.7 -12.5°
Maximum altitude 21:24:56 15° 203° (SSW) 1,494 2.9 -12.9°
Enters shadow 21:26:55 11° 172° (S) 1,701 2.9 -13.3°
